Weather History for Cadillac, MI

Change the Weather History Date:

Wednesday, April 2, 2014

  Actual Average Record
Temperature  
Mean Temperature 28 °F -  
Max Temperature 39 °F 42 °F 76 °F (1963)
Min Temperature 17 °F 26 °F 7 °F (1954)
Degree Days  
Heating Degree Days 37    
Moisture  
Dew Point 20 °F    
Average Humidity 67    
Maximum Humidity 93    
Minimum Humidity 48    
Precipitation  
Precipitation 0.00 in - - ()
Sea Level Pressure  
Sea Level Pressure 30.10 in    
Wind  
Wind Speed 6 mph (NW)    
Max Wind Speed 14 mph    
Max Gust Speed 22 mph    
Visibility 10 miles    
Events      
Averages and records for this station are not official NWS values.
T = Trace of Precipitation, MM = Missing Value Source: NWS Daily Summary

Daily Weather History Graph

Daily Weather History Graph

Search for Another Location

Airport:

Trip Planner

Search our weather history database for the weather conditions in past years. The results will help you decide how hot, cold, wet, or windy it might be!

Date:

Astronomy

Apr. 02, 2014 Rise Set
Actual Time 7:21 AM EDT 8:10 PM EDT
Civil Twilight 6:51 AM EDT 8:39 PM EDT
Nautical Twilight 6:16 AM EDT 9:14 PM EDT
Astronomical Twilight 5:40 AM EDT 9:51 PM EDT
Moon 8:58 AM EDT (4/2) 11:39 PM EDT (4/2)
Length of Visible Light 13h 47m
Length of Day
12h 49m
Waxing Crescent, 10% of the Moon is Illuminated
Apr 2
Waxing Crescent
Apr 7
First Quarter
Apr 15
Full
Apr 22
Last Quarter
Apr 29
New

Hourly Weather History & Observations

Time (EDT) Temp. Windchill Dew Point Humidity Pressure Visibility Wind Dir Wind Speed Gust Speed Precip Events Conditions
12:19 AM 26.6 °F 18.2 °F 21.2 °F 80% 29.97 in 10.0 mi West 8.1 mph - N/A   Clear
12:38 AM 26.6 °F 17.5 °F 21.2 °F 80% 29.97 in 10.0 mi West 9.2 mph - N/A   Mostly Cloudy
12:59 AM 26.6 °F 16.8 °F 21.2 °F 80% 29.97 in 10.0 mi West 10.4 mph - N/A   Overcast
1:22 AM 28.4 °F 17.5 °F 23.0 °F 80% 29.96 in 10.0 mi WNW 13.8 mph 21.9 mph N/A   Overcast
1:44 AM 26.6 °F 16.8 °F 21.2 °F 80% 29.97 in 10.0 mi WNW 10.4 mph - N/A   Overcast
2:00 AM 26.6 °F 16.2 °F 21.2 °F 80% 29.98 in 10.0 mi NW 11.5 mph 16.1 mph N/A   Overcast
2:19 AM 26.6 °F 15.7 °F 19.4 °F 74% 29.98 in 10.0 mi WNW 12.7 mph 18.4 mph N/A   Mostly Cloudy
2:59 AM 24.8 °F 16.9 °F 17.6 °F 74% 30.00 in 10.0 mi WNW 6.9 mph - N/A   Clear
3:21 AM 23.0 °F 15.8 °F 17.6 °F 80% 30.01 in 10.0 mi West 5.8 mph - N/A   Clear
3:39 AM 23.0 °F 17.0 °F 17.6 °F 80% 30.01 in 10.0 mi West 4.6 mph - N/A   Clear
3:58 AM 23.0 °F 17.0 °F 17.6 °F 80% 30.01 in 10.0 mi West 4.6 mph - N/A   Clear
4:19 AM 21.2 °F 16.4 °F 17.6 °F 86% 30.01 in 10.0 mi West 3.5 mph - N/A   Clear
4:39 AM 21.2 °F 16.4 °F 17.6 °F 86% 30.02 in 10.0 mi West 3.5 mph - N/A   Clear
4:59 AM 21.2 °F 16.4 °F 17.6 °F 86% 30.02 in 10.0 mi West 3.5 mph - N/A   Clear
5:21 AM 21.2 °F 16.4 °F 17.6 °F 86% 30.03 in 10.0 mi West 3.5 mph - N/A   Clear
5:41 AM 19.4 °F 14.3 °F 17.6 °F 93% 30.03 in 10.0 mi WSW 3.5 mph - N/A   Scattered Clouds
5:58 AM 19.4 °F - 17.6 °F 93% 30.03 in 10.0 mi Calm Calm - N/A   Scattered Clouds
6:19 AM 19.4 °F - 15.8 °F 86% 30.04 in 10.0 mi Calm Calm - N/A   Clear
6:40 AM 17.6 °F - 15.8 °F 93% 30.05 in 10.0 mi Calm Calm - N/A   Clear
6:59 AM 17.6 °F 12.3 °F 15.8 °F 93% 30.05 in 10.0 mi West 3.5 mph - N/A   Clear
7:19 AM 17.6 °F - 15.8 °F 93% 30.06 in 10.0 mi Calm Calm - N/A   Clear
8:54 AM 26.6 °F 19.1 °F 19.4 °F 74% 30.08 in 10.0 mi NW 6.9 mph - N/A   Clear
9:15 AM 27.5 °F 18.0 °F 19.8 °F 73% 30.09 in 10.0 mi NW 10.4 mph - N/A   Clear
9:35 AM 28.2 °F 19.5 °F 20.3 °F 72% 30.09 in 10.0 mi NNW 9.2 mph - N/A   Clear
9:54 AM 28.8 °F 20.2 °F 20.3 °F 71% 30.10 in 10.0 mi NNW 9.2 mph - N/A   Clear
10:15 AM 29.7 °F 21.3 °F 21.0 °F 70% 30.11 in 10.0 mi NW 9.2 mph - N/A   Clear
10:34 AM 30.7 °F 24.1 °F 21.2 °F 68% 30.12 in 10.0 mi WNW 6.9 mph - N/A   Clear
10:54 AM 31.5 °F 26.8 °F 21.6 °F 67% 30.13 in 10.0 mi West 4.6 mph - N/A   Clear
11:15 AM 32.0 °F 28.7 °F 21.6 °F 65% 30.13 in 10.0 mi WSW 3.5 mph - N/A   Clear
11:34 AM 33.3 °F 27.9 °F 21.6 °F 62% 30.13 in 10.0 mi NNW 5.8 mph - N/A   Clear
11:55 AM 33.6 °F 30.6 °F 21.9 °F 62% 30.14 in 10.0 mi NW 3.5 mph - N/A   Clear
12:15 PM 34.9 °F 30.8 °F 21.6 °F 58% 30.14 in 10.0 mi NNW 4.6 mph - N/A   Clear
12:34 PM 34.0 °F 31.0 °F 21.4 °F 60% 30.14 in 10.0 mi NNW 3.5 mph - N/A   Clear
12:55 PM 35.1 °F 32.2 °F 21.0 °F 57% 30.14 in 10.0 mi WNW 3.5 mph - N/A   Clear
1:15 PM 37.2 °F 31.9 °F 22.1 °F 54% 30.16 in 10.0 mi WNW 6.9 mph - N/A   Clear
1:55 PM 37.9 °F - 22.1 °F 53% 30.15 in 10.0 mi Calm Calm - N/A   Clear
2:15 PM 38.8 °F 35.4 °F 22.3 °F 51% 30.15 in 10.0 mi West 4.6 mph - N/A   Clear
2:34 PM 38.8 °F 34.6 °F 22.6 °F 52% 30.15 in 10.0 mi WNW 5.8 mph - N/A   Clear
2:55 PM 38.5 °F 35.0 °F 21.6 °F 51% 30.15 in 10.0 mi NNW 4.6 mph - N/A   Clear
3:15 PM 38.3 °F 33.2 °F 22.8 °F 54% 30.14 in 10.0 mi NNW 6.9 mph - N/A   Clear
3:34 PM 38.7 °F 32.9 °F 22.1 °F 51% 30.15 in 10.0 mi NW 8.1 mph - N/A   Clear
3:55 PM 39.0 °F 35.7 °F 22.1 °F 51% 30.15 in 10.0 mi NNW 4.6 mph - N/A   Clear
4:15 PM 39.2 °F 35.0 °F 21.4 °F 49% 30.14 in 10.0 mi North 5.8 mph - N/A   Clear
4:34 PM 39.2 °F 34.2 °F 21.7 °F 50% 30.14 in 10.0 mi North 6.9 mph - N/A   Clear
4:55 PM 39.4 °F 36.1 °F 22.6 °F 51% 30.14 in 10.0 mi North 4.6 mph - N/A   Clear
5:15 PM 39.4 °F 35.2 °F 21.2 °F 48% 30.14 in 10.0 mi North 5.8 mph - N/A   Clear
5:34 PM 39.6 °F 37.4 °F 21.4 °F 48% 30.14 in 10.0 mi NNW 3.5 mph - N/A   Clear
5:55 PM 38.7 °F 34.3 °F 20.7 °F 48% 30.14 in 10.0 mi NNE 5.8 mph - N/A   Clear
6:15 PM 38.8 °F 33.8 °F 20.8 °F 48% 30.14 in 10.0 mi North 6.9 mph - N/A   Clear
6:34 PM 38.3 °F 32.5 °F 20.5 °F 49% 30.13 in 10.0 mi North 8.1 mph - N/A   Clear
6:55 PM 37.9 °F 32.1 °F 20.1 °F 49% 30.14 in 10.0 mi North 8.1 mph - N/A   Clear
7:14 PM 37.2 °F 31.9 °F 20.3 °F 50% 30.15 in 10.0 mi North 6.9 mph - N/A   Clear
7:34 PM 35.6 °F 30.7 °F 20.5 °F 54% 30.15 in 10.0 mi North 5.8 mph - N/A   Clear
7:55 PM 35.1 °F 29.3 °F 20.3 °F 55% 30.16 in 10.0 mi NNE 6.9 mph - N/A   Clear
8:15 PM 33.6 °F 29.4 °F 19.8 °F 57% 30.17 in 10.0 mi North 4.6 mph - N/A   Clear
8:34 PM 32.5 °F 28.1 °F 19.0 °F 58% 30.17 in 10.0 mi North 4.6 mph - N/A   Clear
8:55 PM 32.2 °F - 18.3 °F 57% 30.18 in 10.0 mi Calm Calm - N/A   Clear
9:14 PM 32.0 °F 28.7 °F 18.5 °F 58% 30.19 in 10.0 mi NNE 3.5 mph - N/A   Clear
9:34 PM 30.9 °F - 18.5 °F 60% 30.20 in 10.0 mi Calm Calm - N/A   Clear
9:55 PM 28.0 °F - 19.9 °F 72% 30.20 in 10.0 mi Calm Calm - N/A   Clear
10:14 PM 27.9 °F - 19.4 °F 71% 30.19 in 10.0 mi Calm Calm - N/A   Clear
10:34 PM 28.4 °F 23.3 °F 18.3 °F 66% 30.19 in 10.0 mi NNE 4.6 mph - N/A   Clear
10:55 PM 28.2 °F 24.4 °F 18.5 °F 67% 30.19 in 10.0 mi NE 3.5 mph - N/A   Clear
11:14 PM 28.4 °F 24.6 °F 18.5 °F 66% 30.19 in 10.0 mi NE 3.5 mph - N/A   Clear
11:35 PM 27.5 °F - 19.0 °F 71% 30.20 in 10.0 mi Calm Calm - N/A   Clear